Tracking 29065 objects as of 22-Jul-2024
HD Live streaming from Space Station
objects crossing your sky now

VIGORIDE-3

Track VIGORIDE-3 now!
10-day predictions


NORAD ID: 52760
Int'l Code: 2022-057AE
Perigee: 510.3 km
Apogee: 525.9 km
Inclination: 97.6 °
Period: 94.8 minutes
Semi major axis: 6889 km
RCS: Unknown
Launch date: May 25, 2022
Source: United States (US)
Launch site: AIR FORCE EASTERN TEST RANGE (AFETR)
Your satellite tracking list
Your tracking list is empty




NASA's NSSDC Master Catalog

Two Line Element Set (TLE):
1 52760U 22057AE  24204.18616572  .00004635  00000-0  22908-3 0  9996
2 52760  97.5809 323.4507 0011338  36.8154 323.3856 15.18299354119386
Source of the keplerian elements: AFSPC